South Lake Tahoe, CA

6:43 AM PDT on July 22, 2017 (GMT -0700)
Lake Tahoe

Weather History for KTVL - July, 2013

Change the Weather History Date:

Tuesday, July 9, 2013

  Actual Average Record
Temperature  
Mean Temperature 64 °F 60 °F  
Max Temperature 82 °F 80 °F 89 °F (2008)
Min Temperature 46 °F 41 °F 31 °F (1983)
Degree Days  
Heating Degree Days 1 5  
Month to date heating degree days 3 51  
Since 1 June heating degree days 197 361  
Since 1 July heating degree days 3 51  
Cooling Degree Days 0 0  
Month to date cooling degree days 32 0  
Year to date cooling degree days 53 1  
Since 1 June cooling degree days 53 1  
Growing Degree Days 14 (Base 50)    
Moisture  
Dew Point 31 °F    
Average Humidity 36    
Maximum Humidity 56    
Minimum Humidity 15    
Precipitation  
Precipitation 0.00 in - 1.63 in (1974)
Month to date precipitation 0.01  
Year to date precipitation 5.34  
Sea Level Pressure  
Sea Level Pressure 30.15 in    
Wind  
Wind Speed 3 mph (SSW)    
Max Wind Speed 15 mph    
Max Gust Speed 25 mph    
Visibility 10 miles    
Events      
T = Trace of Precipitation, MM = Missing Value Source: NWS Daily Summary

Daily Weather History Graph

Daily Weather History Graph

Search for Another Location

Airport or City:

Trip Planner

Search our weather history database for the weather conditions in past years. The results will help you decide how hot, cold, wet, or windy it might be!

Date:

Astronomy

Jul. 09, 2013 Rise Set
Actual Time 5:43 AM PDT 8:27 PM PDT
Civil Twilight 5:11 AM PDT 8:58 PM PDT
Nautical Twilight 4:32 AM PDT 9:38 PM PDT
Astronomical Twilight 3:47 AM PDT 10:22 PM PDT
Moon 7:10 AM PDT (7/9) 9:09 PM PDT (7/9)
Length of Visible Light 15h 47m
Length of Day
14h 44m
New Moon, 2% of the Moon is Illuminated
Jul 9
New Moon
Jul 15
First Quarter
Jul 22
Full
Jul 29
Last Quarter
Aug 6
New

Hourly Weather History & Observations

Time (PDT) Temp. Dew Point Humidity Pressure Visibility Wind Dir Wind Speed Gust Speed Precip Events Conditions
12:53 AM 53.1 °F 30.0 °F 41% 30.11 in 10.0 mi Calm Calm - N/A   Clear
1:53 AM 52.0 °F 33.1 °F 49% 30.12 in 10.0 mi Calm Calm - N/A   Clear
2:53 AM 50.0 °F 30.9 °F 48% 30.12 in 10.0 mi Calm Calm - N/A   Clear
3:53 AM 48.9 °F 30.9 °F 50% 30.12 in 10.0 mi Calm Calm - N/A   Clear
5:53 AM 46.0 °F 30.9 °F 56% 30.16 in 10.0 mi Calm Calm - N/A   Clear
6:53 AM 48.9 °F 33.1 °F 54% 30.18 in 10.0 mi Calm Calm - N/A   Clear
7:53 AM 59.0 °F 37.0 °F 44% 30.17 in 10.0 mi Calm Calm - N/A   Clear
8:53 AM 72.0 °F 30.9 °F 22% 30.15 in 10.0 mi South 6.9 mph - N/A   Clear
9:53 AM 75.0 °F 26.1 °F 16% 30.15 in 10.0 mi SSW 9.2 mph - N/A   Clear
10:53 AM 77.0 °F 27.0 °F 16% 30.15 in 10.0 mi SSW 9.2 mph 20.7 mph N/A   Clear
11:53 AM 78.1 °F 28.0 °F 16% 30.15 in 10.0 mi Variable 6.9 mph - N/A   Clear
12:53 PM 79.0 °F 28.9 °F 16% 30.15 in 10.0 mi Variable 5.8 mph 16.1 mph N/A   Clear
1:53 PM 80.1 °F 30.9 °F 17% 30.15 in 10.0 mi NE 9.2 mph - N/A   Clear
2:53 PM 81.0 °F 30.0 °F 16% 30.15 in 10.0 mi Variable 4.6 mph 17.3 mph N/A   Clear
3:53 PM 80.1 °F 30.9 °F 17% 30.14 in 10.0 mi SSW 9.2 mph - N/A   Clear
4:53 PM 79.0 °F 30.0 °F 17% 30.15 in 10.0 mi SSW 10.4 mph 19.6 mph N/A   Clear
5:53 PM 78.1 °F 30.0 °F 17% 30.14 in 10.0 mi South 9.2 mph - N/A   Clear
6:53 PM 75.9 °F 30.0 °F 19% 30.14 in 10.0 mi SW 5.8 mph - N/A   Clear
7:53 PM 68.0 °F 34.0 °F 28% 30.14 in 10.0 mi Calm Calm - N/A   Clear
8:53 PM 64.0 °F 35.1 °F 34% 30.13 in 10.0 mi Calm Calm - N/A   Clear
9:53 PM 59.0 °F 34.0 °F 39% 30.15 in 10.0 mi SW 3.5 mph - N/A   Clear
10:53 PM 55.0 °F 36.0 °F 49% 30.16 in 10.0 mi South 4.6 mph - N/A   Clear
11:53 PM 52.0 °F 36.0 °F 54% 30.16 in 10.0 mi South 3.5 mph - N/A   Clear